Regional Weather Roundup
Issued by NWS

Home | Current Version | Previous Version | Text Only | Print | Product List | Glossary Off
Versions: 1 2 3 4 5 6 7 8 9 10 11 12 13 14 15 16 17 18 19 20 21 22 23 24 25 26 27 28 29 30 31 32 33 34 35 36 37 38 39 40 41 42 43 44 45 46 47 48 49 50

733
ASUS43 KLMK 210602
RWRKY
KENTUCKY REGIONAL WEATHER ROUNDUP
NATIONAL WEATHER SERVICE LOUISVILLE KY
100 AM EST TUE FEB 21 2017

NOTE "FAIR" INDICATES FEW OR NO CLOUDS BELOW 12,000 FEET
WITH NO SIGNIFICANT WEATHER AND/OR OBSTRUCTIONS TO VISIBILITY.

KYZ001>023-026-027-061>063-070>075-210700-
WESTERN AND SOUTH CENTRAL KENTUCKY

CITY           SKY/WX    TMP DP  RH WIND       PRES   REMARKS
PADUCAH        CLOUDY    63  49  60 S8        29.94F
HENDERSON      MOCLDY    57  45  62 SE6       29.95F
OWENSBORO      CLOUDY    57  47  69 SE6       29.98F HAZE
HOPKINSVILLE   PTCLDY    63  46  54 SE6       29.98F
BOWLING GREEN  CLOUDY    62  43  49 S9        30.02S
GLASGOW        NOT AVBL
$$

KYZ024-025-028>034-038-045-046-053-210700-
NORTH CENTRAL KENTUCKY

CITY           SKY/WX    TMP DP  RH WIND       PRES   REMARKS
LOUISVILLE/SDF CLOUDY    59  41  51 SE5       30.01F
LOUISVILLE/LOU CLOUDY    57  43  59 CALM      30.02S
FORT KNOX      PTCLDY    55  42  62 SE5       30.00F
$$

KYZ035>037-039>044-047>052-055>060-089>105-210700-
NORTHEAST KENTUCKY

CITY           SKY/WX    TMP DP  RH WIND       PRES   REMARKS
LEXINGTON      CLOUDY    58  40  51 SE9       30.05F
COVINGTON      CLOUDY    53  39  59 SE9       30.04S
FRANKFORT      MOCLDY    53  41  63 CALM      30.03S
$$

KYZ054-064>069-076>088-106>120-210700-
SOUTHEAST KENTUCKY

CITY           SKY/WX    TMP DP  RH WIND       PRES   REMARKS
JACKSON        CLOUDY    58  35  42 CALM      30.08F
LONDON         PTCLDY    49  40  71 CALM      30.09S
SOMERSET       CLOUDY    55  41  58 CALM      30.09S
MIDDLESBORO    CLOUDY    45  42  92 CALM      30.12S
MONTICELLO     CLOUDY    51  44  77 W10       30.09F
$$





USA.gov is the U.S. government's official web portal to all federal, state and local government web resources and services.